Time,TemperatureF,DewpointF,PressureIn,WindDirection,WindDirectionDegrees,WindSpeedMPH,WindSpeedGustMPH,Humidity,HourlyPrecipIn,Conditions,Clouds,dailyrainin,SoftwareType,DateUTC
2013-01-22 00:02:00,-10.0,-16.0,-100.00,NW,310,5.0,7.0,76,0.00,,,-99.99,,2013-01-22 06:02:00,
2013-01-22 00:12:00,-10.0,-16.0,-100.00,NW,310,5.0,7.0,76,0.00,,,-99.99,,2013-01-22 06:12:00,
2013-01-22 00:22:00,-10.0,-16.0,-100.00,NW,305,3.0,6.0,76,0.00,,,-99.99,,2013-01-22 06:22:00,
2013-01-22 00:32:00,-11.0,-16.0,-100.00,NW,315,2.0,4.0,76,0.00,,,-99.99,,2013-01-22 06:32:00,
2013-01-22 00:42:00,-11.0,-16.0,-100.00,NW,310,4.0,6.0,76,0.00,,,-99.99,,2013-01-22 06:42:00,
2013-01-22 00:52:00,-11.0,-16.0,-100.00,NW,310,4.0,6.0,76,0.00,,,-99.99,,2013-01-22 06:52:00,
2013-01-22 01:02:00,-10.0,-16.0,-100.00,WNW,290,4.0,6.0,76,0.00,,,-99.99,,2013-01-22 07:02:00,
2013-01-22 01:12:00,-10.0,-16.0,-100.00,WNW,290,4.0,6.0,76,0.00,,,-99.99,,2013-01-22 07:12:00,
2013-01-22 01:22:00,-11.0,-17.0,-100.00,NW,310,1.0,3.0,76,0.00,,,-99.99,,2013-01-22 07:22:00,
2013-01-22 01:32:00,-12.0,-18.0,-100.00,NW,305,0.0,1.0,77,0.00,,,-99.99,,2013-01-22 07:32:00,
2013-01-22 01:42:00,-13.0,-18.0,-100.00,West,265,2.0,3.0,78,0.00,,,-99.99,,2013-01-22 07:42:00,
2013-01-22 01:52:00,-13.0,-18.0,-100.00,West,265,2.0,3.0,78,0.00,,,-99.99,,2013-01-22 07:52:00,
2013-01-22 02:02:00,-13.0,-18.0,-100.00,West,275,1.0,3.0,78,0.00,,,-99.99,,2013-01-22 08:02:00,
2013-01-22 02:12:00,-13.0,-18.0,-100.00,West,275,1.0,3.0,78,0.00,,,-99.99,,2013-01-22 08:12:00,
2013-01-22 02:22:00,-14.0,-19.0,-100.00,West,260,0.0,2.0,79,0.00,,,-99.99,,2013-01-22 08:22:00,
2013-01-22 02:32:00,-15.0,-19.0,-100.00,West,260,1.0,1.0,79,0.00,,,-99.99,,2013-01-22 08:32:00,
2013-01-22 02:42:00,-15.0,-19.0,-100.00,West,260,1.0,2.0,80,0.00,,,-99.99,,2013-01-22 08:42:00,
2013-01-22 02:52:00,-15.0,-19.0,-100.00,West,260,1.0,2.0,80,0.00,,,-99.99,,2013-01-22 08:52:00,
2013-01-22 03:02:00,-15.0,-19.0,-100.00,West,260,0.0,1.0,80,0.00,,,-99.99,,2013-01-22 09:02:00,
2013-01-22 03:12:00,-15.0,-19.0,-100.00,West,260,0.0,1.0,80,0.00,,,-99.99,,2013-01-22 09:12:00,
2013-01-22 03:22:00,-15.0,-19.0,-100.00,West,260,2.0,3.0,81,0.00,,,-99.99,,2013-01-22 09:22:00,
2013-01-22 03:32:00,-15.0,-19.0,-100.00,West,260,1.0,3.0,81,0.00,,,-99.99,,2013-01-22 09:32:00,
2013-01-22 03:42:00,-15.0,-19.0,-100.00,West,265,1.0,2.0,81,0.00,,,-99.99,,2013-01-22 09:42:00,
2013-01-22 03:52:00,-15.0,-19.0,-100.00,West,265,1.0,2.0,81,0.00,,,-99.99,,2013-01-22 09:52:00,
2013-01-22 04:02:00,-16.0,-20.0,-100.00,West,265,1.0,2.0,81,0.00,,,-99.99,,2013-01-22 10:02:00,
2013-01-22 04:12:00,-16.0,-20.0,-100.00,West,265,1.0,2.0,81,0.00,,,-99.99,,2013-01-22 10:12:00,
2013-01-22 04:22:00,-15.0,-19.0,-100.00,WSW,255,2.0,3.0,82,0.00,,,-99.99,,2013-01-22 10:22:00,
2013-01-22 04:32:00,-15.0,-19.0,-100.00,WSW,250,2.0,4.0,82,0.00,,,-99.99,,2013-01-22 10:32:00,
2013-01-22 04:42:00,-15.0,-19.0,-100.00,WSW,250,2.0,4.0,82,0.00,,,-99.99,,2013-01-22 10:42:00,
2013-01-22 04:52:00,-15.0,-19.0,-100.00,WSW,250,2.0,4.0,82,0.00,,,-99.99,,2013-01-22 10:52:00,
2013-01-22 05:02:00,-16.0,-19.0,-100.00,West,260,1.0,3.0,82,0.00,,,-99.99,,2013-01-22 11:02:00,
2013-01-22 05:12:00,-16.0,-19.0,-100.00,West,260,1.0,3.0,82,0.00,,,-99.99,,2013-01-22 11:12:00,
2013-01-22 05:22:00,-16.0,-20.0,-100.00,West,280,0.0,1.0,83,0.00,,,-99.99,,2013-01-22 11:22:00,
2013-01-22 05:33:00,-16.0,-20.0,-100.00,West,280,0.0,1.0,83,0.00,,,-99.99,,2013-01-22 11:33:00,
2013-01-22 05:43:00,-16.0,-20.0,-100.00,West,280,0.0,1.0,83,0.00,,,-99.99,,2013-01-22 11:43:00,
2013-01-22 05:53:00,-16.0,-20.0,-100.00,West,280,0.0,1.0,83,0.00,,,-99.99,,2013-01-22 11:53:00,
2013-01-22 06:03:00,-16.0,-20.0,-100.00,West,280,0.0,1.0,83,0.00,,,-99.99,,2013-01-22 12:03:00,
2013-01-22 06:12:00,-16.0,-20.0,-100.00,West,280,0.0,1.0,83,0.00,,,-99.99,,2013-01-22 12:12:00,
2013-01-22 06:23:00,-16.0,-20.0,-100.00,West,280,0.0,1.0,83,0.00,,,-99.99,,2013-01-22 12:23:00,
2013-01-22 06:33:00,-17.0,-20.0,-100.00,West,280,0.0,1.0,83,0.00,,,-99.99,,2013-01-22 12:33:00,
2013-01-22 06:43:00,-17.0,-20.0,-100.00,SSW,205,0.0,1.0,83,0.00,,,-99.99,,2013-01-22 12:43:00,
2013-01-22 06:52:00,-17.0,-20.0,-100.00,SSW,205,0.0,1.0,83,0.00,,,-99.99,,2013-01-22 12:52:00,
2013-01-22 07:03:00,-16.0,-20.0,-100.00,SSW,205,0.0,1.0,83,0.00,,,-99.99,,2013-01-22 13:03:00,
2013-01-22 07:13:00,-16.0,-20.0,-100.00,SSW,205,0.0,1.0,83,0.00,,,-99.99,,2013-01-22 13:13:00,
2013-01-22 07:23:00,-16.0,-20.0,-100.00,SSW,200,1.0,2.0,83,0.00,,,-99.99,,2013-01-22 13:23:00,
2013-01-22 07:33:00,-16.0,-19.0,-100.00,SW,215,2.0,3.0,84,0.00,,,-99.99,,2013-01-22 13:33:00,
2013-01-22 07:43:00,-15.0,-19.0,-100.00,SW,215,0.0,3.0,84,0.00,,,-99.99,,2013-01-22 13:43:00,
2013-01-22 07:53:00,-15.0,-19.0,-100.00,SW,215,0.0,3.0,84,0.00,,,-99.99,,2013-01-22 13:53:00,
2013-01-22 08:03:00,-16.0,-19.0,-100.00,South,185,0.0,2.0,84,0.00,,,-99.99,,2013-01-22 14:03:00,
2013-01-22 08:13:00,-16.0,-19.0,-100.00,South,185,0.0,2.0,84,0.00,,,-99.99,,2013-01-22 14:13:00,
2013-01-22 08:23:00,-15.0,-19.0,-100.00,South,185,1.0,2.0,84,0.00,,,-99.99,,2013-01-22 14:23:00,
2013-01-22 08:34:00,-16.0,-19.0,-100.00,SSW,195,1.0,2.0,84,0.00,,,-99.99,,2013-01-22 14:34:00,
2013-01-22 08:44:00,-14.0,-17.0,-100.00,SSW,200,1.0,2.0,84,0.00,,,-99.99,,2013-01-22 14:44:00,
2013-01-22 08:53:00,-14.0,-17.0,-100.00,SSW,200,1.0,2.0,84,0.00,,,-99.99,,2013-01-22 14:53:00,
2013-01-22 09:03:00,-13.0,-16.0,-100.00,SSW,195,1.0,2.0,84,0.00,,,-99.99,,2013-01-22 15:03:00,
2013-01-22 09:13:00,-13.0,-16.0,-100.00,SSW,195,1.0,2.0,84,0.00,,,-99.99,,2013-01-22 15:13:00,
2013-01-22 09:23:00,-9.0,-12.0,-100.00,SW,235,2.0,4.0,85,0.00,,,-99.99,,2013-01-22 15:23:00,
2013-01-22 09:34:00,-8.0,-12.0,-100.00,West,265,2.0,5.0,84,0.00,,,-99.99,,2013-01-22 15:34:00,
2013-01-22 09:43:00,-8.0,-12.0,-100.00,West,265,2.0,5.0,84,0.00,,,-99.99,,2013-01-22 15:43:00,
2013-01-22 09:52:00,-7.0,-11.0,-100.00,WSW,240,1.0,4.0,83,0.00,,,-99.99,,2013-01-22 15:52:00,
2013-01-22 10:03:00,-6.0,-10.0,-100.00,South,175,1.0,3.0,82,0.00,,,-99.99,,2013-01-22 16:03:00,
2013-01-22 10:13:00,-6.0,-10.0,-100.00,South,175,1.0,3.0,82,0.00,,,-99.99,,2013-01-22 16:13:00,
2013-01-22 10:23:00,-5.0,-10.0,-100.00,SW,215,2.0,4.0,79,0.00,,,-99.99,,2013-01-22 16:23:00,
2013-01-22 10:33:00,-5.0,-10.0,-100.00,SW,220,1.0,4.0,79,0.00,,,-99.99,,2013-01-22 16:33:00,
2013-01-22 10:43:00,-5.0,-10.0,-100.00,SSW,200,1.0,4.0,77,0.00,,,-99.99,,2013-01-22 16:43:00,
2013-01-22 10:53:00,-5.0,-10.0,-100.00,SSW,200,1.0,4.0,77,0.00,,,-99.99,,2013-01-22 16:53:00,
2013-01-22 11:03:00,-5.0,-10.0,-100.00,South,190,3.0,4.0,76,0.00,,,-99.99,,2013-01-22 17:03:00,
2013-01-22 11:13:00,-5.0,-10.0,-100.00,South,190,3.0,4.0,76,0.00,,,-99.99,,2013-01-22 17:13:00,
2013-01-22 11:23:00,-4.0,-10.0,-100.00,SSW,210,2.0,4.0,74,0.00,,,-99.99,,2013-01-22 17:23:00,
2013-01-22 11:34:00,-3.0,-9.0,-100.00,SSW,210,1.0,4.0,74,0.00,,,-99.99,,2013-01-22 17:34:00,
2013-01-22 11:43:00,-3.0,-9.0,-100.00,SW,235,3.0,5.0,73,0.00,,,-99.99,,2013-01-22 17:43:00,
2013-01-22 11:53:00,-3.0,-9.0,-100.00,SW,235,3.0,5.0,73,0.00,,,-99.99,,2013-01-22 17:53:00,
2013-01-22 12:03:00,-2.0,-9.0,-100.00,West,260,4.0,6.0,72,0.00,,,-99.99,,2013-01-22 18:03:00,
2013-01-22 12:13:00,-2.0,-9.0,-100.00,West,260,4.0,6.0,72,0.00,,,-99.99,,2013-01-22 18:13:00,
2013-01-22 12:23:00,-1.0,-9.0,-100.00,SW,225,2.0,6.0,71,0.00,,,-99.99,,2013-01-22 18:23:00,
2013-01-22 12:33:00,-1.0,-8.0,-100.00,South,185,2.0,5.0,70,0.00,,,-99.99,,2013-01-22 18:33:00,
2013-01-22 12:43:00,0.0,-8.0,-100.00,SW,220,2.0,6.0,69,0.00,,,-99.99,,2013-01-22 18:43:00,
2013-01-22 12:53:00,0.0,-8.0,-100.00,SW,220,2.0,6.0,69,0.00,,,-99.99,,2013-01-22 18:53:00,
2013-01-22 13:03:00,0.0,-7.0,-100.00,SW,215,2.0,6.0,68,0.00,,,-99.99,,2013-01-22 19:03:00,
2013-01-22 13:13:00,0.0,-7.0,-100.00,SW,215,2.0,6.0,68,0.00,,,-99.99,,2013-01-22 19:13:00,
2013-01-22 13:23:00,0.0,-8.0,-100.00,SSW,205,2.0,9.0,68,0.00,,,-99.99,,2013-01-22 19:23:00,
2013-01-22 13:33:00,1.0,-7.0,-100.00,SW,230,4.0,7.0,68,0.00,,,-99.99,,2013-01-22 19:33:00,
2013-01-22 13:43:00,3.0,-6.0,-100.00,SW,225,4.0,9.0,68,0.00,,,-99.99,,2013-01-22 19:43:00,
2013-01-22 13:53:00,3.0,-6.0,-100.00,SW,225,4.0,9.0,68,0.00,,,-99.99,,2013-01-22 19:53:00,
2013-01-22 14:03:00,4.0,-4.0,-100.00,SW,220,4.0,7.0,67,0.00,,,-99.99,,2013-01-22 20:03:00,
2013-01-22 14:13:00,4.0,-4.0,-100.00,SW,220,4.0,7.0,67,0.00,,,-99.99,,2013-01-22 20:13:00,
2013-01-22 14:23:00,3.0,-5.0,-100.00,West,280,3.0,7.0,67,0.00,,,-99.99,,2013-01-22 20:23:00,
2013-01-22 14:33:00,4.0,-4.0,-100.00,SW,225,3.0,7.0,67,0.00,,,-99.99,,2013-01-22 20:33:00,
2013-01-22 14:43:00,5.0,-4.0,-100.00,SSW,210,6.0,9.0,67,0.00,,,-99.99,,2013-01-22 20:43:00,
2013-01-22 14:53:00,5.0,-4.0,-100.00,SSW,210,6.0,9.0,67,0.00,,,-99.99,,2013-01-22 20:53:00,
2013-01-22 15:03:00,5.0,-4.0,-100.00,WSW,240,6.0,9.0,67,0.00,,,-99.99,,2013-01-22 21:03:00,
2013-01-22 15:13:00,5.0,-4.0,-100.00,WSW,240,6.0,9.0,67,0.00,,,-99.99,,2013-01-22 21:13:00,
2013-01-22 15:22:00,5.0,-3.0,-100.00,South,180,4.0,9.0,67,0.00,,,-99.99,,2013-01-22 21:22:00,
2013-01-22 15:33:00,6.0,-2.0,-100.00,SSW,195,3.0,7.0,68,0.00,,,-99.99,,2013-01-22 21:33:00,
2013-01-22 15:43:00,6.0,-2.0,-100.00,SSW,195,3.0,7.0,68,0.00,,,-99.99,,2013-01-22 21:43:00,
2013-01-22 15:53:00,6.0,-2.0,-100.00,SSW,200,3.0,6.0,68,0.00,,,-99.99,,2013-01-22 21:53:00,
2013-01-22 16:03:00,7.0,-2.0,-100.00,SSW,200,1.0,5.0,67,0.00,,,-99.99,,2013-01-22 22:03:00,
2013-01-22 16:12:00,7.0,-2.0,-100.00,SSW,200,1.0,5.0,67,0.00,,,-99.99,,2013-01-22 22:12:00,
2013-01-22 16:22:00,6.0,-2.0,-100.00,SW,215,6.0,8.0,66,0.00,,,-99.99,,2013-01-22 22:22:00,
2013-01-22 16:32:00,6.0,-2.0,-100.00,SSW,210,4.0,6.0,66,0.00,,,-99.99,,2013-01-22 22:32:00,
2013-01-22 16:43:00,7.0,-2.0,-100.00,SSE,150,1.0,4.0,66,0.00,,,-99.99,,2013-01-22 22:43:00,
2013-01-22 16:53:00,7.0,-2.0,-100.00,SSE,150,1.0,4.0,66,0.00,,,-99.99,,2013-01-22 22:53:00,
2013-01-22 17:03:00,7.0,-2.0,-100.00,South,190,1.0,4.0,67,0.00,,,-99.99,,2013-01-22 23:03:00,
2013-01-22 17:12:00,7.0,-2.0,-100.00,South,190,1.0,4.0,67,0.00,,,-99.99,,2013-01-22 23:12:00,
2013-01-22 17:23:00,7.0,-2.0,-100.00,SSE,150,2.0,2.0,67,0.00,,,-99.99,,2013-01-22 23:23:00,
2013-01-22 17:33:00,7.0,-1.0,-100.00,South,170,1.0,4.0,68,0.00,,,-99.99,,2013-01-22 23:33:00,
2013-01-22 17:43:00,7.0,-1.0,-100.00,SSE,160,5.0,6.0,68,0.00,,,-99.99,,2013-01-22 23:43:00,
2013-01-22 17:52:00,7.0,-1.0,-100.00,SSE,160,5.0,6.0,68,0.00,,,-99.99,,2013-01-22 23:52:00,
2013-01-22 18:03:00,6.0,-2.0,-100.00,SE,140,2.0,6.0,68,0.00,,,-99.99,,2013-01-23 00:03:00,
2013-01-22 18:12:00,6.0,-2.0,-100.00,SE,140,2.0,6.0,68,0.00,,,-99.99,,2013-01-23 00:12:00,
2013-01-22 18:22:00,6.0,-2.0,-100.00,ESE,110,4.0,7.0,70,0.00,,,-99.99,,2013-01-23 00:22:00,
2013-01-22 18:33:00,5.0,-1.0,-100.00,ESE,110,4.0,7.0,72,0.00,,,-99.99,,2013-01-23 00:33:00,
2013-01-22 18:43:00,5.0,-1.0,-100.00,SE,145,4.0,7.0,76,0.00,,,-99.99,,2013-01-23 00:43:00,
2013-01-22 18:52:00,5.0,-1.0,-100.00,SE,145,4.0,7.0,76,0.00,,,-99.99,,2013-01-23 00:52:00,
2013-01-22 19:03:00,5.0,0.0,-100.00,SE,135,4.0,6.0,77,0.00,,,-99.99,,2013-01-23 01:03:00,
2013-01-22 19:13:00,5.0,0.0,-100.00,SE,135,4.0,6.0,77,0.00,,,-99.99,,2013-01-23 01:13:00,
2013-01-22 19:22:00,5.0,0.0,-100.00,SE,135,6.0,8.0,79,0.00,,,-99.99,,2013-01-23 01:22:00,
2013-01-22 19:33:00,5.0,0.0,-100.00,SSE,150,6.0,8.0,79,0.00,,,-99.99,,2013-01-23 01:33:00,
2013-01-22 19:43:00,5.0,0.0,-100.00,SE,140,6.0,9.0,80,0.00,,,-99.99,,2013-01-23 01:43:00,
2013-01-22 19:52:00,5.0,0.0,-100.00,SE,140,6.0,9.0,80,0.00,,,-99.99,,2013-01-23 01:52:00,
2013-01-22 20:03:00,5.0,0.0,-100.00,SSE,165,4.0,9.0,81,0.00,,,-99.99,,2013-01-23 02:03:00,
2013-01-22 20:12:00,5.0,0.0,-100.00,SSE,165,4.0,9.0,81,0.00,,,-99.99,,2013-01-23 02:12:00,
2013-01-22 20:23:00,5.0,1.0,-100.00,SSE,165,2.0,8.0,81,0.00,,,-99.99,,2013-01-23 02:23:00,
2013-01-22 20:33:00,5.0,1.0,-100.00,SE,135,3.0,7.0,82,0.00,,,-99.99,,2013-01-23 02:33:00,
2013-01-22 20:43:00,6.0,1.0,-100.00,South,180,4.0,7.0,82,0.00,,,-99.99,,2013-01-23 02:43:00,
2013-01-22 20:53:00,6.0,1.0,-100.00,South,180,4.0,7.0,82,0.00,,,-99.99,,2013-01-23 02:53:00,
2013-01-22 21:03:00,6.0,2.0,-100.00,South,175,3.0,6.0,83,0.00,,,-99.99,,2013-01-23 03:03:00,
2013-01-22 21:13:00,6.0,2.0,-100.00,South,175,3.0,6.0,83,0.00,,,-99.99,,2013-01-23 03:13:00,
2013-01-22 21:23:00,6.0,2.0,-100.00,South,180,3.0,7.0,83,0.00,,,-99.99,,2013-01-23 03:23:00,
2013-01-22 21:33:00,6.0,2.0,-100.00,South,185,2.0,7.0,83,0.00,,,-99.99,,2013-01-23 03:33:00,
2013-01-22 21:42:00,6.0,2.0,-100.00,SE,140,3.0,5.0,83,0.00,,,-99.99,,2013-01-23 03:42:00,
2013-01-22 21:53:00,6.0,2.0,-100.00,SE,140,3.0,5.0,83,0.00,,,-99.99,,2013-01-23 03:53:00,
2013-01-22 22:03:00,6.0,2.0,-100.00,South,180,3.0,5.0,83,0.00,,,-99.99,,2013-01-23 04:03:00,
2013-01-22 22:12:00,6.0,2.0,-100.00,South,180,3.0,5.0,83,0.00,,,-99.99,,2013-01-23 04:12:00,
2013-01-22 22:22:00,6.0,3.0,-100.00,South,175,2.0,4.0,83,0.00,,,-99.99,,2013-01-23 04:22:00,
2013-01-22 22:32:00,7.0,3.0,-100.00,South,170,3.0,5.0,83,0.00,,,-99.99,,2013-01-23 04:32:00,
2013-01-22 22:43:00,7.0,3.0,-100.00,SSE,165,2.0,6.0,83,0.00,,,-99.99,,2013-01-23 04:43:00,
2013-01-22 22:52:00,7.0,3.0,-100.00,SSE,165,2.0,6.0,83,0.00,,,-99.99,,2013-01-23 04:52:00,
2013-01-22 23:03:00,7.0,3.0,-100.00,South,170,3.0,6.0,83,0.00,,,-99.99,,2013-01-23 05:03:00,
2013-01-22 23:12:00,7.0,3.0,-100.00,South,170,3.0,6.0,83,0.00,,,-99.99,,2013-01-23 05:12:00,
2013-01-22 23:22:00,7.0,3.0,-100.00,South,170,2.0,7.0,83,0.00,,,-99.99,,2013-01-23 05:22:00,
2013-01-22 23:33:00,7.0,3.0,-100.00,SSE,160,2.0,7.0,83,0.00,,,-99.99,,2013-01-23 05:33:00,
2013-01-22 23:43:00,7.0,4.0,-100.00,SSE,165,2.0,5.0,83,0.00,,,-99.99,,2013-01-23 05:43:00,
2013-01-22 23:52:00,7.0,4.0,-100.00,SSE,165,2.0,5.0,83,0.00,,,-99.99,,2013-01-23 05:52:00,